Location: Antioch Baptist Church
(32.6696°N, 85.7327°W)
Time: 09:50:27
(UTC+00:00)

Cosmos-2242 - Pass Details

Date: 05 November 2020
Orbit: 592 x 616 km, 82.5° (Epoch: 26 November)

Event Time Altitude Azimuth Distance (km) Brightness Sun altitude
Rises 00:48:12 0° 216° (SW) 2,819 7.0 -25.4°
Reaches altitude 10° 00:50:47 10° 231° (SW) 1,925 6.3 -26.0°
Maximum altitude 00:54:06 22° 283° (WNW) 1,326 5.4 -26.7°
Drops below altitude 10° 00:57:27 10° 334° (NNW) 1,945 5.9 -27.4°
Sets 01:00:06 0° 350° (N) 2,857 6.6 -27.9°
